NINGXIA-1 2

Last updated on Sat Dec 14 2019 00:02:03 GMT+0000 (Coordinated Universal Time)

1 44780U 19076B 19347.42928424 -.00000130 00000-0 00000+0 0 9999 2 44780 45.0151 0.9028 0008978 26.0008 334.1272 14.00581866 4238
UTC large
Height (km)
Speed (km/s)
/
Latitude / Longitude
Inclination (degrees)
Orbital Period (minutes)
Azimuth
Elevation
Range (km)
Doppler Factor

Next 0 passes for location: London (51.5072 / 0.1276)

Sorry there are no passes over London.